This demonstration page uses our WeatherBlox Daily Observations layout. Learn more.

Left ArrowRight Arrow

Hourly Observations for December 14, 2021

Temp ( °F °C ) Dew Point ( °F °C ) Humidity (%) Winds ( mph kmh ) Pressure ( in mb ) Visibility ( mi km ) Precip ( " mm )
12:59 am 00:59 Clear 42 5.6 32 0 68 68 SSW 3 6 30.36 1028 10 16 0.00 0.00
1:59 am 01:59 Clear 44 6.7 32 0 63 63 WSW 5 7 30.37 1029 10 16 0.00 0.00
2:59 am 02:59 Clear 39 3.9 32 0 76 76 SW 5 7 30.37 1029 10 16 0.00 0.00
3:59 am 03:59 Clear 41 5 32 0 70 70 SW 5 7 30.38 1029 10 16 0.00 0.00
4:59 am 04:59 Clear 38 3.3 32 0 79 79 Calm 30.39 1029 10 16 0.00 0.00
5:59 am 05:59 Clear 36 2.2 31 -0.6 82 82 Calm 30.41 1030 10 16 0.00 0.00
6:59 am 06:59 Clear 42 5.6 33 0.6 71 71 NNW 7 11 30.43 1030 10 16 0.00 0.00
7:59 am 07:59 Sunny 40 4.4 33 0.6 77 77 Calm 30.45 1031 10 16 0.00 0.00
8:59 am 08:59 Mostly Sunny 50 10 38 3.3 63 63 NNE 12 19 30.46 1032 10 16 0.00 0.00
9:59 am 09:59 Mostly Sunny 52 11.1 35 1.7 53 53 NE 10 17 30.49 1033 10 16 0.00 0.00
10:59 am 10:59 Mostly Sunny 54 12.2 33 0.6 45 45 NNE 12 19 30.50 1033 10 16 0.00 0.00
11:59 am 11:59 Sunny 55 12.8 32 0 42 42 NNE 9 15 30.48 1032 10 16 0.00 0.00
12:59 pm 12:59 Sunny 56 13.3 34 1.1 44 44 NNE 8 13 30.47 1032 10 16 0.00 0.00
1:59 pm 13:59 Sunny 53 11.7 34 1.1 48 48 N 9 15 30.48 1032 10 16 0.00 0.00
2:59 pm 14:59 Sunny 54 12.2 36 2.2 51 51 NNE 10 17 30.48 1032 10 16 0.00 0.00
3:59 pm 15:59 Sunny 51 10.6 38 3.3 61 61 NE 12 19 30.49 1033 10 16 0.00 0.00
4:59 pm 16:59 Clear 49 9.4 38 3.3 66 66 NE 9 15 30.50 1033 10 16 0.00 0.00
5:59 pm 17:59 Clear 47 8.3 38 3.3 71 71 NE 6 9 30.52 1034 10 16 0.00 0.00
6:59 pm 18:59 Clear 47 8.3 40 4.4 77 77 NE 6 9 30.54 1034 10 16 0.00 0.00
7:59 pm 19:59 Clear 48 8.9 41 5 77 77 ENE 8 13 30.53 1034 10 16 0.00 0.00
8:59 pm 20:59 Clear 48 8.9 41 5 77 77 NE 8 13 30.55 1035 10 16 0.00 0.00
9:59 pm 21:59 Clear 47 8.3 42 5.6 83 83 NNE 7 11 30.56 1035 10 16 0.00 0.00
10:59 pm 22:59 Clear 48 8.9 43 6.1 83 83 NE 8 13 30.55 1035 10 16 0.00 0.00
11:59 pm 23:59 Clear 47 8.3 43 6.1 86 86 NNE 7 11 30.54 1034 10 16 0.00 0.00

Powered by AerisWeather